| time (UTC) | temp C | wind direction | speed KPH | gust KPH | rain 1hr cm | rain 24hr cm | rain mn cm | humidity % | barometer mb |
| 20260504234701 | 10 | 98 | 6.4 | 9.7 | 0.00 | 0.18 | 0.00 | 91 | 1012.0 |
| 20260504233703 | 10 | 99 | 6.4 | 9.7 | 0.00 | 0.28 | 0.00 | 90 | 1012.0 |
| 20260504232700 | 10 | 94 | 6.4 | 8.0 | 0.00 | 0.28 | 0.00 | 90 | 1012.3 |
| 20260504231659 | 11 | 103 | 6.4 | 9.7 | 0.00 | 0.28 | 0.00 | 87 | 1012.5 |
| 20260504230659 | 11 | 94 | 6.4 | 9.7 | 0.00 | 0.28 | 0.00 | 88 | 1012.2 |
| 20260504225657 | 11 | 98 | 6.4 | 9.7 | 0.00 | 0.28 | 0.00 | 88 | 1012.6 |
| 20260504224655 | 11 | 76 | 6.4 | 9.7 | 0.00 | 0.28 | 0.00 | 85 | 1012.6 |
| 20260504223654 | 12 | 102 | 6.4 | 12.9 | 0.00 | 0.28 | 0.00 | 81 | 1012.6 |
| 20260504222654 | 13 | 107 | 6.4 | 11.3 | 0.00 | 0.28 | 0.00 | 78 | 1012.7 |
| 20260504221655 | 14 | 80 | 6.4 | 12.9 | 0.00 | 0.28 | 0.00 | 73 | 1012.5 |
| 20260504220654 | 14 | 73 | 6.4 | 11.3 | 0.00 | 0.28 | 0.00 | 74 | 1012.5 |
| 20260504215805 | 14 | 105 | 6.4 | 11.3 | 0.00 | 0.28 | 0.00 | 75 | 1012.6 |
| 20260504214649 | 14 | 89 | 6.4 | 12.9 | 0.00 | 0.28 | 0.00 | 73 | 1012.6 |
| 20260504213645 | 13 | 96 | 6.4 | 9.7 | 0.00 | 0.28 | 0.00 | 75 | 1012.8 |
| 20260504212645 | 15 | 97 | 6.4 | 11.3 | 0.00 | 0.28 | 0.00 | 71 | 1012.9 |
| 20260504211646 | 15 | 89 | 6.4 | 14.5 | 0.00 | 0.28 | 0.00 | 73 | 1013.0 |
| 20260504210646 | 15 | 72 | 8.0 | 14.5 | 0.00 | 0.28 | 0.00 | 70 | 1013.1 |
| 20260504205646 | 15 | 97 | 6.4 | 12.9 | 0.00 | 0.28 | 0.00 | 69 | 1013.1 |
| 20260504204646 | 15 | 94 | 6.4 | 14.5 | 0.00 | 0.28 | 0.00 | 70 | 1013.5 |
| 20260504203645 | 15 | 111 | 8.0 | 16.1 | 0.00 | 0.28 | 0.00 | 69 | 1013.3 |
| 20260504202640 | 15 | 98 | 8.0 | 14.5 | 0.00 | 0.28 | 0.00 | 69 | 1013.5 |
| 20260504201641 | 15 | 65 | 8.0 | 12.9 | 0.00 | 0.28 | 0.00 | 69 | 1013.6 |
| 20260504200639 | 15 | 105 | 8.0 | 14.5 | 0.00 | 0.28 | 0.00 | 69 | 1013.6 |
| 20260504195640 | 15 | 97 | 6.4 | 16.1 | 0.00 | 0.28 | 0.00 | 72 | 1013.8 |
| 20260504194638 | 14 | 69 | 6.4 | 12.9 | 0.00 | 0.28 | 0.00 | 72 | 1013.8 |
| 20260504193638 | 14 | 99 | 8.0 | 12.9 | 0.00 | 0.28 | 0.00 | 74 | 1013.9 |
| 20260504192635 | 14 | 99 | 8.0 | 12.9 | 0.00 | 0.28 | 0.00 | 74 | 1014.1 |
| 20260504191635 | 14 | 85 | 8.0 | 11.3 | 0.00 | 0.28 | 0.00 | 72 | 1014.0 |
| 20260504190636 | 13 | 96 | 8.0 | 11.3 | 0.00 | 0.28 | 0.00 | 73 | 1014.1 |
| 20260504185636 | 13 | 105 | 8.0 | 12.9 | 0.00 | 0.28 | 0.00 | 75 | 1014.2 |
| 20260504184639 | 12 | 95 | 6.4 | 9.7 | 0.00 | 0.28 | 0.00 | 81 | 1014.4 |
| 20260504183633 | 12 | 101 | 6.4 | 9.7 | 0.00 | 0.28 | 0.00 | 79 | 1014.4 |
| 20260504182750 | 12 | 122 | 6.4 | 9.7 | 0.00 | 0.28 | 0.00 | 81 | 1014.4 |
| 20260504181635 | 11 | 157 | 4.8 | 9.7 | 0.00 | 0.28 | 0.00 | 84 | 1014.2 |
| 20260504180633 | 11 | 159 | 6.4 | 8.0 | 0.00 | 0.28 | 0.00 | 84 | 1014.2 |
| 20260504175635 | 11 | 105 | 4.8 | 8.0 | 0.00 | 0.28 | 0.00 | 85 | 1014.1 |
| 20260504174634 | 10 | 101 | 4.8 | 11.3 | 0.00 | 0.28 | 0.00 | 88 | 1014.1 |
| 20260504173636 | 10 | 110 | 4.8 | 9.7 | 0.00 | 0.28 | 0.00 | 89 | 1014.1 |
| 20260504172740 | 10 | 110 | 4.8 | 6.4 | 0.00 | 0.28 | 0.00 | 90 | 1014.1 |
| 20260504171631 | 10 | 111 | 4.8 | 8.0 | 0.00 | 0.28 | 0.00 | 91 | 1014.1 |
| 20260504170632 | 9 | 108 | 6.4 | 8.0 | 0.00 | 0.28 | 0.00 | 92 | 1014.1 |
| 20260504150626 | 8 | 86 | 4.8 | 6.4 | 0.00 | 0.28 | 0.00 | 96 | 1014.1 |
| 20260504140626 | 8 | 107 | 4.8 | 6.4 | 0.00 | 0.28 | 0.00 | 97 | 1013.7 |
| 20260504130618 | 8 | 88 | 4.8 | 6.4 | 0.00 | 0.28 | 0.00 | 97 | 1013.3 |
| 20260504110612 | 8 | 85 | 4.8 | 8.0 | 0.00 | 0.28 | 0.00 | 95 | 1013.3 |
| 20260504081600 | 8 | 99 | 4.8 | 6.4 | 0.00 | 0.28 | 0.00 | 95 | 1013.5 |
| 20260504080601 | 8 | 164 | 4.8 | 6.4 | 0.00 | 0.28 | 0.00 | 94 | 1013.3 |
| 20260504050558 | 9 | 84 | 6.4 | 8.0 | 0.00 | 0.25 | 0.25 | 91 | 1014.1 |
| 20260504045544 | 9 | 83 | 6.4 | 8.0 | 0.00 | 0.25 | 0.25 | 89 | 1014.2 |
| 20260504044650 | 10 | 80 | 4.8 | 6.4 | 0.00 | 0.25 | 0.25 | 88 | 1014.5 |
| 20260504043656 | 10 | 177 | 4.8 | 6.4 | 0.00 | 0.25 | 0.25 | 85 | 1014.6 |
| 20260504042539 | 10 | 9 | 3.2 | 8.0 | 0.00 | 0.25 | 0.25 | 83 | 1014.8 |
| 20260504041539 | 10 | 100 | 4.8 | 8.0 | 0.00 | 0.25 | 0.25 | 81 | 1014.9 |
| 20260504040543 | 10 | 103 | 4.8 | 9.7 | 0.00 | 0.25 | 0.25 | 81 | 1014.7 |
| 20260504035539 | 10 | 99 | 4.8 | 6.4 | 0.00 | 0.25 | 0.25 | 83 | 1014.6 |
| 20260504034540 | 10 | 92 | 6.4 | 8.0 | 0.00 | 0.25 | 0.25 | 83 | 1014.2 |
| 20260504033540 | 10 | 94 | 6.4 | 8.0 | 0.00 | 0.25 | 0.25 | 83 | 1013.9 |
| 20260504032538 | 10 | 89 | 6.4 | 8.0 | 0.00 | 0.25 | 0.25 | 84 | 1013.8 |
| 20260504031538 | 10 | 90 | 6.4 | 8.0 | 0.00 | 0.25 | 0.25 | 84 | 1013.7 |
| 20260504030539 | 10 | 77 | 4.8 | 9.7 | 0.00 | 0.25 | 0.25 | 84 | 1013.5 |
| 20260504025653 | 10 | 107 | 4.8 | 9.7 | 0.00 | 0.25 | 0.25 | 85 | 1013.2 |
| 20260504024536 | 10 | 113 | 6.4 | 9.7 | 0.00 | 0.25 | 0.25 | 85 | 1013.2 |
| 20260504023536 | 11 | 94 | 6.4 | 11.3 | 0.00 | 0.25 | 0.25 | 86 | 1012.8 |
| 20260504022648 | 11 | 101 | 6.4 | 9.7 | 0.00 | 0.25 | 0.25 | 86 | 1012.6 |
| 20260504021538 | 12 | 97 | 6.4 | 12.9 | 0.00 | 0.25 | 0.25 | 86 | 1012.2 |
| 20260504020654 | 12 | 105 | 8.0 | 9.7 | 0.00 | 0.25 | 0.25 | 85 | 1012.1 |
| 20260504015536 | 13 | 104 | 6.4 | 11.3 | 0.00 | 0.25 | 0.25 | 85 | 1011.9 |
| 20260504014529 | 13 | 101 | 6.4 | 9.7 | 0.00 | 0.25 | 0.25 | 86 | 1011.8 |
| 20260504013542 | 13 | 90 | 8.0 | 9.7 | 0.00 | 0.25 | 0.25 | 92 | 1011.7 |
| 20260504012647 | 13 | 90 | 6.4 | 8.0 | 0.00 | 0.25 | 0.25 | 91 | 1011.4 |
| 20260504011529 | 14 | 94 | 6.4 | 8.0 | 0.00 | 0.25 | 0.25 | 87 | 1011.6 |
| 20260504010524 | 14 | 95 | 6.4 | 12.9 | 0.00 | 0.25 | 0.25 | 88 | 1011.7 |
| 20260504005639 | 13 | 98 | 6.4 | 11.3 | 0.00 | 0.25 | 0.25 | 88 | 1011.8 |
| 20260504004531 | 13 | 105 | 6.4 | 12.9 | 0.23 | 0.25 | 0.25 | 91 | 1011.8 |
| 20260504003529 | 13 | 98 | 6.4 | 9.7 | 0.25 | 0.25 | 0.25 | 93 | 1011.8 |
| 20260504002528 | 12 | 99 | 6.4 | 9.7 | 0.25 | 0.25 | 0.25 | 92 | 1011.8 |
| 20260504001539 | 12 | 92 | 6.4 | 9.7 | 0.25 | 0.25 | 0.25 | 91 | 1011.6 |
| 20260504000518 | 13 | 95 | 6.4 | 9.7 | 0.25 | 0.25 | 0.25 | 88 | 1011.7 |
| 20260503235521 | 15 | 86 | 6.4 | 14.5 | 0.25 | 0.25 | 0.25 | 81 | 1012.1 |